TimeEDT,TemperatureF,Dew PointF,Humidity,Sea Level PressureIn,VisibilityMPH,Wind Direction,Wind SpeedMPH,Gust SpeedMPH,PrecipitationIn,Events,Conditions,WindDirDegrees,DateUTC
12:15 AM,68.0,68.0,100,29.95,5.0,Calm,Calm,-,N/A,,Scattered Clouds,0,2013-09-03 04:15:00
12:35 AM,68.0,68.0,100,29.95,4.0,Calm,Calm,-,N/A,,Mostly Cloudy,0,2013-09-03 04:35:00
12:55 AM,68.0,68.0,100,29.94,6.0,Calm,Calm,-,N/A,,Mostly Cloudy,0,2013-09-03 04:55:00
1:15 AM,68.0,66.2,94,29.94,5.0,Calm,Calm,-,N/A,,Partly Cloudy,0,2013-09-03 05:15:00
1:35 AM,66.2,66.2,100,29.93,4.0,Calm,Calm,-,N/A,,Scattered Clouds,0,2013-09-03 05:35:00
1:55 AM,68.0,68.0,100,29.92,4.0,Calm,Calm,-,N/A,,Mostly Cloudy,0,2013-09-03 05:55:00
2:15 AM,68.0,68.0,100,29.92,5.0,NNE,4.6,-,N/A,,Scattered Clouds,20,2013-09-03 06:15:00
2:35 AM,69.8,68.0,94,29.93,6.0,Calm,Calm,-,N/A,,Mostly Cloudy,0,2013-09-03 06:35:00
2:55 AM,69.8,66.2,88,29.94,7.0,West,4.6,-,N/A,,Overcast,270,2013-09-03 06:55:00
3:15 AM,68.0,66.2,94,29.93,5.0,SSW,4.6,-,N/A,Rain,Rain,200,2013-09-03 07:15:00
3:35 AM,66.2,64.4,94,29.94,7.0,West,4.6,-,N/A,Rain,Rain,260,2013-09-03 07:35:00
3:55 AM,66.2,64.4,94,29.93,8.0,WNW,3.5,-,N/A,Rain,Light Rain,300,2013-09-03 07:55:00
4:15 AM,64.4,64.4,100,29.92,7.0,NNE,3.5,-,N/A,Rain,Light Rain,30,2013-09-03 08:15:00
4:35 AM,64.4,62.6,94,29.94,7.0,West,6.9,-,N/A,Rain,Light Rain,270,2013-09-03 08:35:00
4:55 AM,64.4,62.6,94,29.91,7.0,Calm,Calm,-,N/A,Rain,Light Rain,0,2013-09-03 08:55:00
5:15 AM,64.4,62.6,94,29.94,9.0,Variable,6.9,-,N/A,Rain,Light Rain,0,2013-09-03 09:15:00
5:35 AM,64.4,62.6,94,29.94,10.0,South,5.8,-,N/A,,Scattered Clouds,170,2013-09-03 09:35:00
5:55 AM,62.6,62.6,100,29.95,10.0,NW,4.6,-,N/A,,Clear,310,2013-09-03 09:55:00
6:15 AM,62.6,62.6,100,29.96,10.0,NW,3.5,-,N/A,,Clear,320,2013-09-03 10:15:00
6:35 AM,62.6,62.6,100,29.97,10.0,Calm,Calm,-,N/A,,Clear,0,2013-09-03 10:35:00
6:55 AM,62.6,62.6,100,29.97,9.0,Calm,Calm,-,N/A,,Scattered Clouds,0,2013-09-03 10:55:00
7:15 AM,62.6,62.6,100,29.97,9.0,Calm,Calm,-,N/A,,Partly Cloudy,0,2013-09-03 11:15:00
7:35 AM,62.6,60.8,94,29.97,10.0,Calm,Calm,-,N/A,,Clear,0,2013-09-03 11:35:00
7:55 AM,62.6,62.6,100,29.98,10.0,Calm,Calm,-,N/A,,Clear,0,2013-09-03 11:55:00
8:15 AM,62.6,62.6,100,29.98,9.0,Calm,Calm,-,N/A,,Clear,0,2013-09-03 12:15:00
8:35 AM,62.6,62.6,100,29.99,10.0,Calm,Calm,-,N/A,,Scattered Clouds,0,2013-09-03 12:35:00
8:55 AM,64.4,62.6,94,30.00,10.0,Calm,Calm,-,N/A,,Overcast,0,2013-09-03 12:55:00
9:15 AM,64.4,62.6,94,30.01,10.0,Calm,Calm,-,N/A,,Overcast,0,2013-09-03 13:15:00
9:35 AM,66.2,62.6,88,30.01,10.0,Calm,Calm,-,N/A,,Overcast,0,2013-09-03 13:35:00
9:55 AM,66.2,62.6,88,30.02,10.0,SW,3.5,-,N/A,,Overcast,230,2013-09-03 13:55:00
10:15 AM,66.2,62.6,88,30.02,10.0,SSW,4.6,-,N/A,,Overcast,210,2013-09-03 14:15:00
10:35 AM,66.2,62.6,88,30.03,10.0,WSW,4.6,-,N/A,,Overcast,250,2013-09-03 14:35:00
10:55 AM,69.8,62.6,78,30.03,10.0,West,3.5,-,N/A,,Overcast,280,2013-09-03 14:55:00
11:15 AM,69.8,64.4,83,30.03,10.0,Variable,3.5,-,N/A,,Overcast,0,2013-09-03 15:15:00
11:35 AM,71.6,62.6,73,30.03,10.0,Calm,Calm,-,N/A,,Overcast,0,2013-09-03 15:35:00
11:55 AM,69.8,62.6,78,30.03,10.0,West,4.6,-,N/A,,Overcast,260,2013-09-03 15:55:00
12:15 PM,69.8,64.4,83,30.03,10.0,WSW,3.5,-,N/A,,Overcast,240,2013-09-03 16:15:00
12:35 PM,71.6,64.4,78,30.03,10.0,WNW,6.9,-,N/A,,Mostly Cloudy,300,2013-09-03 16:35:00
12:55 PM,71.6,64.4,78,30.02,10.0,Calm,Calm,-,N/A,,Mostly Cloudy,0,2013-09-03 16:55:00
1:15 PM,73.4,66.2,78,30.01,10.0,Calm,Calm,-,N/A,,Scattered Clouds,0,2013-09-03 17:15:00
1:35 PM,75.2,66.2,73,30.01,10.0,Variable,5.8,-,N/A,,Partly Cloudy,0,2013-09-03 17:35:00
1:55 PM,75.2,66.2,73,30.00,10.0,Variable,5.8,-,N/A,,Partly Cloudy,0,2013-09-03 17:55:00
2:15 PM,77.0,64.4,65,30.00,10.0,Calm,Calm,-,N/A,,Scattered Clouds,0,2013-09-03 18:15:00
2:35 PM,77.0,64.4,65,29.99,10.0,Calm,Calm,-,N/A,,Mostly Cloudy,0,2013-09-03 18:35:00
2:55 PM,78.8,66.2,65,29.99,10.0,West,5.8,-,N/A,,Mostly Cloudy,260,2013-09-03 18:55:00
3:15 PM,78.8,64.4,61,29.98,10.0,Calm,Calm,-,N/A,,Mostly Cloudy,0,2013-09-03 19:15:00
3:35 PM,80.6,64.4,58,29.97,10.0,WSW,5.8,-,N/A,,Partly Cloudy,240,2013-09-03 19:35:00
3:55 PM,78.8,64.4,61,29.97,10.0,West,4.6,-,N/A,,Mostly Cloudy,270,2013-09-03 19:55:00
4:15 PM,75.2,66.2,73,29.97,10.0,NW,4.6,-,N/A,,Mostly Cloudy,310,2013-09-03 20:15:00
4:35 PM,77.0,66.2,69,29.97,10.0,WNW,3.5,-,N/A,,Mostly Cloudy,290,2013-09-03 20:35:00
4:55 PM,78.8,66.2,65,29.96,10.0,SSW,3.5,-,N/A,,Mostly Cloudy,200,2013-09-03 20:55:00
5:15 PM,80.6,66.2,61,29.96,10.0,Variable,4.6,-,N/A,,Overcast,0,2013-09-03 21:15:00
5:35 PM,78.8,66.2,65,29.96,10.0,West,4.6,-,N/A,,Mostly Cloudy,270,2013-09-03 21:35:00
5:55 PM,78.8,64.4,61,29.96,10.0,Variable,3.5,-,N/A,,Mostly Cloudy,0,2013-09-03 21:55:00
6:15 PM,77.0,64.4,65,29.97,9.0,NW,3.5,-,N/A,,Partly Cloudy,310,2013-09-03 22:15:00
6:35 PM,75.2,62.6,65,29.97,10.0,Variable,3.5,-,N/A,,Clear,0,2013-09-03 22:35:00
6:55 PM,75.2,62.6,65,29.97,10.0,Calm,Calm,-,N/A,,Clear,0,2013-09-03 22:55:00
7:15 PM,73.4,62.6,69,29.98,10.0,Calm,Calm,-,N/A,,Clear,0,2013-09-03 23:15:00
7:35 PM,71.6,64.4,78,29.99,10.0,Calm,Calm,-,N/A,,Clear,0,2013-09-03 23:35:00
7:55 PM,69.8,64.4,83,30.00,10.0,Calm,Calm,-,N/A,,Partly Cloudy,0,2013-09-03 23:55:00
8:15 PM,68.0,64.4,88,30.01,10.0,Calm,Calm,-,N/A,,Mostly Cloudy,0,2013-09-04 00:15:00
8:35 PM,66.2,62.6,88,30.02,10.0,Calm,Calm,-,N/A,,Overcast,0,2013-09-04 00:35:00
8:55 PM,64.4,62.6,94,30.03,10.0,Calm,Calm,-,N/A,,Mostly Cloudy,0,2013-09-04 00:55:00
9:15 PM,64.4,62.6,94,30.04,10.0,Calm,Calm,-,N/A,,Partly Cloudy,0,2013-09-04 01:15:00
9:35 PM,62.6,62.6,100,30.06,10.0,Calm,Calm,-,N/A,,Mostly Cloudy,0,2013-09-04 01:35:00
9:55 PM,62.6,60.8,94,30.06,10.0,Calm,Calm,-,N/A,,Scattered Clouds,0,2013-09-04 01:55:00
10:15 PM,62.6,60.8,94,30.07,10.0,Calm,Calm,-,N/A,,Clear,0,2013-09-04 02:15:00
10:35 PM,60.8,60.8,100,30.07,10.0,Calm,Calm,-,N/A,,Clear,0,2013-09-04 02:35:00
10:55 PM,60.8,60.8,100,30.08,10.0,Calm,Calm,-,N/A,,Clear,0,2013-09-04 02:55:00
11:15 PM,60.8,59.0,94,30.08,10.0,Calm,Calm,-,N/A,,Clear,0,2013-09-04 03:15:00
11:35 PM,60.8,59.0,94,30.08,10.0,Calm,Calm,-,N/A,,Clear,0,2013-09-04 03:35:00
11:55 PM,59.0,57.2,94,30.08,10.0,Calm,Calm,-,N/A,,Clear,0,2013-09-04 03:55:00